Wetterdaten: aktuell Montag, 17.12.2018 12:00
Datum Zeit Temp. 2m Temp. 5cm Temp. -10cm Temp. 2m alt Feuchte A. Luftdruck Regen Wind Richtung Richtung Taupunkt Windchill Windben
17.12.2018 12:00 1,7 C 0,6 C 2,8 C 1,3 C 82 % 1023,6 hPa 0,0 l/m 0,5 km/h (0 Bft) SO 135 -1,0 C 1,7 C 2,1 km/h (1 Bft)
17.12.2018 11:58 1,7 C 0,6 C 2,8 C 1,3 C 82 % 1023,6 hPa 0,0 l/m 0,8 km/h (0 Bft) S-SO 157 -1,0 C 1,7 C 2,3 km/h (1 Bft)
17.12.2018 11:56 1,6 C 0,6 C 2,8 C 1,3 C 82 % 1023,6 hPa 0,0 l/m 0,8 km/h (0 Bft) O-SO 112 -1,1 C 1,6 C 2,3 km/h (1 Bft)
17.12.2018 11:54 1,6 C 0,6 C 2,8 C 1,3 C 82 % 1023,6 hPa 0,0 l/m 0,8 km/h (0 Bft) S 180 -1,1 C 1,6 C 2,3 km/h (1 Bft)
17.12.2018 11:52 1,6 C 0,6 C 2,8 C 1,1 C 82 % 1023,6 hPa 0,0 l/m 0,8 km/h (0 Bft) O-SO 112 -1,1 C 1,6 C 1,9 km/h (1 Bft)
17.12.2018 11:50 1,6 C 0,6 C 2,8 C 1,1 C 82 % 1023,6 hPa 0,0 l/m 1,0 km/h (0 Bft) S-SO 157 -1,1 C 1,6 C 2,9 km/h (1 Bft)
17.12.2018 11:48 1,6 C 0,6 C 2,8 C 1,1 C 82 % 1023,6 hPa 0,0 l/m 0,6 km/h (0 Bft) S 180 -1,1 C 1,6 C 2,9 km/h (1 Bft)
17.12.2018 11:46 1,5 C 0,6 C 2,7 C 1,1 C 82 % 1023,4 hPa 0,0 l/m 0,5 km/h (0 Bft) S-SO 157 -1,2 C 1,5 C 2,1 km/h (1 Bft)
17.12.2018 11:44 1,5 C 0,6 C 2,7 C 1,0 C 82 % 1023,4 hPa 0,0 l/m 0,2 km/h (0 Bft) S-SW 202 -1,2 C 1,5 C 2,1 km/h (1 Bft)
17.12.2018 11:42 1,5 C 0,6 C 2,7 C 1,0 C 82 % 1023,4 hPa 0,0 l/m 0,2 km/h (0 Bft) O 90 -1,2 C 1,5 C 0,0 km/h (0 Bft)
17.12.2018 11:40 1,3 C 0,6 C 2,7 C 1,0 C 83 % 1023,4 hPa 0,0 l/m 0,0 km/h (0 Bft) S-SO 157 -1,3 C 1,3 C 0,0 km/h (0 Bft)
17.12.2018 11:38 1,3 C 0,6 C 2,7 C 1,0 C 83 % 1023,4 hPa 0,0 l/m 0,0 km/h (0 Bft) S-SO 157 -1,3 C 1,3 C 0,0 km/h (0 Bft)
17.12.2018 11:36 1,2 C 0,5 C 2,7 C 1,0 C 83 % 1023,4 hPa 0,0 l/m 0,2 km/h (0 Bft) SW 225 -1,4 C 1,2 C 0,0 km/h (0 Bft)
17.12.2018 11:34 1,1 C 0,6 C 2,7 C 1,0 C 83 % 1023,4 hPa 0,0 l/m 0,5 km/h (0 Bft) S 180 -1,5 C 1,1 C 0,0 km/h (0 Bft)
17.12.2018 11:32 1,1 C 0,5 C 2,7 C 1,0 C 83 % 1023,4 hPa 0,0 l/m 0,8 km/h (0 Bft) O 90 -1,5 C 1,1 C 0,0 km/h (0 Bft)
17.12.2018 11:30 1,0 C 0,6 C 2,7 C 0,9 C 83 % 1023,4 hPa 0,0 l/m 1,1 km/h (1 Bft) S-SW 202 -1,6 C 1,0 C 0,0 km/h (0 Bft)
17.12.2018 11:28 0,9 C 0,6 C 2,7 C 0,9 C 83 % 1023,4 hPa 0,0 l/m 1,6 km/h (1 Bft) O-NO 67 -1,7 C 0,9 C 2,9 km/h (1 Bft)
17.12.2018 11:26 0,9 C 0,6 C 2,7 C 0,9 C 83 % 1023,5 hPa 0,0 l/m 2,1 km/h (1 Bft) SO 135 -1,7 C 0,9 C 3,9 km/h (1 Bft)
17.12.2018 11:24 0,9 C 0,6 C 2,7 C 0,8 C 83 % 1023,5 hPa 0,0 l/m 2,4 km/h (1 Bft) O-NO 67 -1,7 C 0,9 C 4,1 km/h (1 Bft)
17.12.2018 11:22 0,9 C 0,6 C 2,7 C 0,7 C 83 % 1023,5 hPa 0,0 l/m 2,7 km/h (1 Bft) O-SO 112 -1,7 C 0,9 C 5,0 km/h (1 Bft)
17.12.2018 11:20 0,7 C 0,6 C 2,7 C 0,7 C 83 % 1023,5 hPa 0,0 l/m 2,9 km/h (1 Bft) O 90 -1,8 C 0,7 C 5,0 km/h (1 Bft)
17.12.2018 11:18 0,7 C 0,5 C 2,7 C 0,7 C 82 % 1023,5 hPa 0,0 l/m 3,1 km/h (1 Bft) SO 135 -2,0 C 0,7 C 3,7 km/h (1 Bft)
17.12.2018 11:16 0,7 C 0,5 C 2,7 C 0,7 C 82 % 1023,5 hPa 0,0 l/m 3,1 km/h (1 Bft) S-SO 157 -2,0 C 0,7 C 3,5 km/h (1 Bft)
17.12.2018 11:14 0,7 C 0,5 C 2,7 C 0,7 C 82 % 1023,5 hPa 0,0 l/m 3,2 km/h (1 Bft) S-SO 157 -2,0 C 0,7 C 4,6 km/h (1 Bft)
17.12.2018 11:12 0,7 C 0,5 C 2,7 C 0,7 C 82 % 1023,5 hPa 0,0 l/m 3,2 km/h (1 Bft) SO 135 -2,0 C 0,7 C 4,6 km/h (1 Bft)
17.12.2018 11:10 0,9 C 0,5 C 2,7 C 0,7 C 82 % 1023,5 hPa 0,0 l/m 3,1 km/h (1 Bft) N 360 -1,8 C 0,9 C 4,2 km/h (1 Bft)
17.12.2018 11:08 0,9 C 0,5 C 2,7 C 0,7 C 82 % 1023,5 hPa 0,0 l/m 3,1 km/h (1 Bft) O-SO 112 -1,8 C 0,9 C 4,2 km/h (1 Bft)
17.12.2018 11:06 0,9 C 0,5 C 2,7 C 0,7 C 82 % 1023,4 hPa 0,0 l/m 3,1 km/h (1 Bft) S-SO 157 -1,8 C 0,9 C 4,1 km/h (1 Bft)
17.12.2018 11:04 0,9 C 0,5 C 2,7 C 0,7 C 82 % 1023,4 hPa 0,0 l/m 2,9 km/h (1 Bft) O-SO 112 -1,8 C 0,9 C 4,2 km/h (1 Bft)
17.12.2018 11:02 1,0 C 0,5 C 2,7 C 0,7 C 82 % 1023,4 hPa 0,0 l/m 2,6 km/h (1 Bft) O-SO 112 -1,7 C 1,0 C 5,8 km/h (2 Bft)
17.12.2018 11:00 1,0 C 0,5 C 2,7 C 0,7 C 82 % 1023,4 hPa 0,0 l/m 2,3 km/h (1 Bft) O 90 -1,7 C 1,0 C 5,8 km/h (2 Bft)
17.12.2018 10:58 1,0 C 0,5 C 2,7 C 0,7 C 82 % 1023,4 hPa 0,0 l/m 2,3 km/h (1 Bft) SO 135 -1,7 C 1,0 C 4,6 km/h (1 Bft)
17.12.2018 10:56 1,0 C 0,5 C 2,7 C 0,7 C 82 % 1023,4 hPa 0,0 l/m 2,4 km/h (1 Bft) SO 135 -1,7 C 1,0 C 4,6 km/h (1 Bft)
17.12.2018 10:54 1,0 C 0,5 C 2,7 C 0,5 C 81 % 1023,4 hPa 0,0 l/m 2,1 km/h (1 Bft) O-SO 112 -1,9 C 1,0 C 4,1 km/h (1 Bft)
17.12.2018 10:52 1,0 C 0,5 C 2,7 C 0,5 C 82 % 1023,4 hPa 0,0 l/m 2,1 km/h (1 Bft) SO 135 -1,7 C 1,0 C 2,1 km/h (1 Bft)
17.12.2018 10:50 1,1 C 0,5 C 2,7 C 0,5 C 82 % 1023,4 hPa 0,0 l/m 2,3 km/h (1 Bft) S-SO 157 -1,6 C 1,1 C 3,3 km/h (1 Bft)
17.12.2018 10:48 1,2 C 0,4 C 2,7 C 0,5 C 82 % 1023,4 hPa 0,0 l/m 1,8 km/h (1 Bft) S 180 -1,5 C 1,2 C 5,0 km/h (1 Bft)
17.12.2018 10:46 1,3 C 0,4 C 2,7 C 0,5 C 82 % 1023,4 hPa 0,0 l/m 1,4 km/h (1 Bft) S 180 -1,4 C 1,3 C 5,0 km/h (1 Bft)
17.12.2018 10:44 1,3 C 0,4 C 2,7 C 0,5 C 82 % 1023,4 hPa 0,0 l/m 1,0 km/h (0 Bft) S-SO 157 -1,4 C 1,3 C 3,1 km/h (1 Bft)
17.12.2018 10:42 1,3 C 0,4 C 2,7 C 0,5 C 82 % 1023,4 hPa 0,0 l/m 0,6 km/h (0 Bft) S 180 -1,4 C 1,3 C 2,5 km/h (1 Bft)
17.12.2018 10:40 1,2 C 0,4 C 2,7 C 0,5 C 82 % 1023,4 hPa 0,0 l/m 0,3 km/h (0 Bft) S 180 -1,5 C 1,2 C 2,5 km/h (1 Bft)
17.12.2018 10:38 1,1 C 0,4 C 2,7 C 0,5 C 82 % 1023,4 hPa 0,0 l/m 0,2 km/h (0 Bft) S-SO 157 -1,6 C 1,1 C 2,5 km/h (1 Bft)
17.12.2018 10:36 1,0 C 0,4 C 2,7 C 0,4 C 82 % 1023,4 hPa 0,0 l/m 0,2 km/h (0 Bft) W-SW 247 -1,7 C 1,0 C 2,3 km/h (1 Bft)
17.12.2018 10:34 1,0 C 0,4 C 2,7 C 0,4 C 83 % 1023,4 hPa 0,0 l/m 0,2 km/h (0 Bft) W 270 -1,6 C 1,0 C 2,3 km/h (1 Bft)
17.12.2018 10:32 1,0 C 0,4 C 2,7 C 0,3 C 83 % 1023,4 hPa 0,0 l/m 0,0 km/h (0 Bft) W-NW 292 -1,6 C 1,0 C 0,0 km/h (0 Bft)
17.12.2018 10:30 1,0 C 0,4 C 2,7 C 0,3 C 83 % 1023,4 hPa 0,0 l/m 0,0 km/h (0 Bft) W 270 -1,6 C 1,0 C 0,0 km/h (0 Bft)
17.12.2018 10:28 1,0 C 0,4 C 2,7 C 0,3 C 83 % 1023,4 hPa 0,0 l/m 0,0 km/h (0 Bft) W-SW 247 -1,6 C 1,0 C 0,0 km/h (0 Bft)
17.12.2018 10:26 1,0 C 0,4 C 2,7 C 0,2 C 83 % 1023,1 hPa 0,0 l/m 0,0 km/h (0 Bft) W-NW 292 -1,6 C 1,0 C 0,0 km/h (0 Bft)
17.12.2018 10:24 0,9 C 0,4 C 2,7 C 0,1 C 83 % 1023,1 hPa 0,0 l/m 0,0 km/h (0 Bft) S 180 -1,7 C 0,9 C 0,0 km/h (0 Bft)
17.12.2018 10:22 0,8 C 0,3 C 2,7 C 0,1 C 83 % 1023,1 hPa 0,0 l/m 0,2 km/h (0 Bft) S-SO 157 -1,8 C 0,8 C 0,0 km/h (0 Bft)
17.12.2018 10:20 0,7 C 0,3 C 2,7 C -0,1 C 84 % 1023,1 hPa 0,0 l/m 0,3 km/h (0 Bft) O 90 -1,7 C 0,7 C 0,0 km/h (0 Bft)
17.12.2018 10:18 0,4 C 0,3 C 2,7 C -0,2 C 84 % 1023,1 hPa 0,0 l/m 0,5 km/h (0 Bft) W 270 -2,0 C 0,4 C 0,0 km/h (0 Bft)
17.12.2018 10:16 0,3 C 0,3 C 2,7 C -0,2 C 84 % 1023,1 hPa 0,0 l/m 0,8 km/h (0 Bft) W-NW 292 -2,1 C 0,3 C 0,0 km/h (0 Bft)
17.12.2018 10:14 0,3 C 0,3 C 2,7 C -0,2 C 84 % 1023,1 hPa 0,0 l/m 1,3 km/h (1 Bft) S-SW 202 -2,1 C 0,3 C 2,9 km/h (1 Bft)
17.12.2018 10:12 0,2 C 0,2 C 2,7 C -0,3 C 84 % 1023,1 hPa 0,0 l/m 1,3 km/h (1 Bft) S 180 -2,2 C 0,2 C 3,1 km/h (1 Bft)
17.12.2018 10:10 0,2 C 0,2 C 2,7 C -0,4 C 84 % 1023,1 hPa 0,0 l/m 1,3 km/h (1 Bft) S-SO 157 -2,2 C 0,2 C 3,1 km/h (1 Bft)
17.12.2018 10:08 0,2 C 0,2 C 2,7 C -0,4 C 84 % 1023,1 hPa 0,0 l/m 1,0 km/h (0 Bft) S 180 -2,2 C 0,2 C 3,7 km/h (1 Bft)
17.12.2018 10:06 0,2 C 0,2 C 2,7 C -0,4 C 84 % 1022,8 hPa 0,0 l/m 0,8 km/h (0 Bft) S-SO 157 -2,2 C 0,2 C 3,7 km/h (1 Bft)
17.12.2018 10:04 0,2 C 0,2 C 2,7 C -0,4 C 84 % 1022,8 hPa 0,0 l/m 0,6 km/h (0 Bft) SO 135 -2,2 C 0,2 C 2,7 km/h (1 Bft)
17.12.2018 10:02 0,2 C 0,2 C 2,7 C -0,4 C 85 % 1022,8 hPa 0,0 l/m 0,5 km/h (0 Bft) S 180 -2,0 C 0,2 C 2,1 km/h (1 Bft)
17.12.2018 10:00 0,2 C 0,2 C 2,7 C -0,4 C 85 % 1022,8 hPa 0,0 l/m 0,3 km/h (0 Bft) S-SO 157 -2,0 C 0,2 C 2,1 km/h (1 Bft)
17.12.2018 09:58 0,2 C 0,2 C 2,7 C -0,5 C 85 % 1022,8 hPa 0,0 l/m 0,3 km/h (0 Bft) S 180 -2,0 C 0,2 C 0,0 km/h (0 Bft)
17.12.2018 09:56 0,2 C 0,2 C 2,7 C -0,5 C 85 % 1022,8 hPa 0,0 l/m 0,3 km/h (0 Bft) O-SO 112 -2,0 C 0,2 C 2,7 km/h (1 Bft)
17.12.2018 09:54 0,2 C 0,0 C 2,7 C -0,5 C 85 % 1022,8 hPa 0,0 l/m 0,0 km/h (0 Bft) O 90 -2,0 C 0,2 C 2,7 km/h (1 Bft)
17.12.2018 09:52 0,2 C 0,0 C 2,7 C -0,6 C 85 % 1022,8 hPa 0,0 l/m 0,0 km/h (0 Bft) S 180 -2,0 C 0,2 C 0,0 km/h (0 Bft)
17.12.2018 09:50 -0,1 C -0,1 C 2,7 C -0,9 C 86 % 1022,8 hPa 0,0 l/m 0,0 km/h (0 Bft) S 180 -2,2 C -0,1 C 0,0 km/h (0 Bft)
17.12.2018 09:48 -0,1 C -0,1 C 2,7 C -0,9 C 86 % 1022,8 hPa 0,0 l/m 0,0 km/h (0 Bft) SW 225 -2,2 C -0,1 C 0,0 km/h (0 Bft)
17.12.2018 09:46 -0,2 C -0,1 C 2,7 C -0,9 C 86 % 1022,6 hPa 0,0 l/m 0,0 km/h (0 Bft) S 180 -2,3 C -0,2 C 0,0 km/h (0 Bft)
17.12.2018 09:44 -0,3 C -0,1 C 2,7 C -0,9 C 86 % 1022,6 hPa 0,0 l/m 0,2 km/h (0 Bft) S 180 -2,3 C -0,3 C 0,0 km/h (0 Bft)
17.12.2018 09:42 -0,3 C -0,1 C 2,7 C -0,9 C 86 % 1022,6 hPa 0,0 l/m 0,3 km/h (0 Bft) SW 225 -2,3 C -0,3 C 0,0 km/h (0 Bft)
17.12.2018 09:40 -0,5 C -0,1 C 2,7 C -0,9 C 86 % 1022,6 hPa 0,0 l/m 0,3 km/h (0 Bft) S-SW 202 -2,5 C -0,5 C 0,0 km/h (0 Bft)
17.12.2018 09:38 -0,6 C -0,1 C 2,7 C -0,9 C 86 % 1022,6 hPa 0,0 l/m 0,2 km/h (0 Bft) S 180 -2,6 C -0,6 C 0,0 km/h (0 Bft)
17.12.2018 09:36 -0,6 C -0,1 C 2,7 C -1,1 C 86 % 1022,6 hPa 0,0 l/m 0,2 km/h (0 Bft) S 180 -2,6 C -0,6 C 2,1 km/h (1 Bft)
17.12.2018 09:34 -0,7 C -0,2 C 2,7 C -1,1 C 86 % 1022,6 hPa 0,0 l/m 0,2 km/h (0 Bft) S 180 -2,7 C -0,7 C 2,1 km/h (1 Bft)
17.12.2018 09:32 -0,7 C -0,2 C 2,7 C -1,1 C 86 % 1022,6 hPa 0,0 l/m 0,0 km/h (0 Bft) S-SW 202 -2,7 C -0,7 C 0,0 km/h (0 Bft)
17.12.2018 09:30 -0,9 C -0,2 C 2,7 C -1,2 C 86 % 1022,6 hPa 0,0 l/m 0,0 km/h (0 Bft) O-SO 112 -2,9 C -0,9 C 0,0 km/h (0 Bft)
17.12.2018 09:28 -0,9 C -0,3 C 2,7 C -1,2 C 86 % 1022,6 hPa 0,0 l/m 0,0 km/h (0 Bft) S-SO 157 -2,9 C -0,9 C 0,0 km/h (0 Bft)
17.12.2018 09:26 -0,9 C -0,3 C 2,7 C -1,2 C 86 % 1022,4 hPa 0,0 l/m 0,0 km/h (0 Bft) S-SO 157 -2,9 C -0,9 C 0,0 km/h (0 Bft)
17.12.2018 09:24 -1,0 C -0,3 C 2,7 C -1,3 C 86 % 1022,4 hPa 0,0 l/m 0,0 km/h (0 Bft) SO 135 -3,0 C -1,0 C 0,0 km/h (0 Bft)
17.12.2018 09:22 -1,0 C -0,3 C 2,7 C -1,3 C 86 % 1022,4 hPa 0,0 l/m 0,0 km/h (0 Bft) O-SO 112 -3,0 C -1,0 C 0,0 km/h (0 Bft)
17.12.2018 09:20 -1,0 C -0,3 C 2,7 C -1,3 C 86 % 1022,4 hPa 0,0 l/m 0,0 km/h (0 Bft) S-SO 157 -3,0 C -1,0 C 0,0 km/h (0 Bft)
17.12.2018 09:18 -1,0 C -0,3 C 2,7 C -1,4 C 86 % 1022,4 hPa 0,0 l/m 0,0 km/h (0 Bft) O-SO 112 -3,0 C -1,0 C 0,0 km/h (0 Bft)
17.12.2018 09:16 -1,1 C -0,3 C 2,7 C -1,4 C 86 % 1022,4 hPa 0,0 l/m 0,0 km/h (0 Bft) O 90 -3,1 C -1,1 C 0,0 km/h (0 Bft)
17.12.2018 09:14 -1,1 C -0,2 C 2,7 C -1,4 C 87 % 1022,4 hPa 0,0 l/m 0,0 km/h (0 Bft) O 90 -3,0 C -1,1 C 0,0 km/h (0 Bft)
17.12.2018 09:12 -1,3 C -0,2 C 2,7 C -1,5 C 87 % 1022,4 hPa 0,0 l/m 0,0 km/h (0 Bft) O 90 -3,2 C -1,3 C 0,0 km/h (0 Bft)
17.12.2018 09:10 -1,3 C -0,2 C 2,7 C -1,5 C 87 % 1022,4 hPa 0,0 l/m 0,0 km/h (0 Bft) N-NO 22 -3,2 C -1,3 C 0,0 km/h (0 Bft)
17.12.2018 09:08 -1,3 C -0,3 C 2,7 C -1,5 C 87 % 1022,4 hPa 0,0 l/m 0,0 km/h (0 Bft) SO 135 -3,2 C -1,3 C 0,0 km/h (0 Bft)
17.12.2018 09:06 -1,3 C -0,3 C 2,7 C -1,6 C 87 % 1022,2 hPa 0,0 l/m 0,0 km/h (0 Bft) SO 135 -3,2 C -1,3 C 0,0 km/h (0 Bft)
17.12.2018 09:04 -1,3 C -0,5 C 2,7 C -1,6 C 87 % 1022,2 hPa 0,0 l/m 0,0 km/h (0 Bft) O 90 -3,2 C -1,3 C 0,0 km/h (0 Bft)
17.12.2018 09:02 -1,4 C -0,5 C 2,7 C -1,6 C 87 % 1022,2 hPa 0,0 l/m 0,0 km/h (0 Bft) N-NO 22 -3,3 C -1,4 C 0,0 km/h (0 Bft)
17.12.2018 09:00 -1,4 C -0,5 C 2,7 C -1,7 C 87 % 1022,2 hPa 0,0 l/m 0,0 km/h (0 Bft) NO 45 -3,3 C -1,4 C 0,0 km/h (0 Bft)
17.12.2018 08:58 -1,4 C -0,3 C 2,7 C -1,7 C 87 % 1022,2 hPa 0,0 l/m 0,0 km/h (0 Bft) O 90 -3,3 C -1,4 C 0,0 km/h (0 Bft)
17.12.2018 08:56 -1,5 C -0,5 C 2,7 C -1,7 C 87 % 1022,2 hPa 0,0 l/m 0,0 km/h (0 Bft) O 90 -3,4 C -1,5 C 0,0 km/h (0 Bft)
17.12.2018 08:54 -1,5 C -0,5 C 2,7 C -1,7 C 87 % 1022,2 hPa 0,0 l/m 0,0 km/h (0 Bft) O 90 -3,4 C -1,5 C 0,0 km/h (0 Bft)
17.12.2018 08:52 -1,6 C -0,6 C 2,7 C -1,8 C 87 % 1022,2 hPa 0,0 l/m 0,0 km/h (0 Bft) S 180 -3,5 C -1,6 C 0,0 km/h (0 Bft)
17.12.2018 08:50 -1,6 C -0,6 C 2,7 C -1,8 C 87 % 1022,2 hPa 0,0 l/m 0,0 km/h (0 Bft) S 180 -3,5 C -1,6 C 0,0 km/h (0 Bft)
17.12.2018 08:48 -1,6 C -0,8 C 2,7 C -1,9 C 87 % 1022,2 hPa 0,0 l/m 0,0 km/h (0 Bft) S-SW 202 -3,5 C -1,6 C 0,0 km/h (0 Bft)
17.12.2018 08:46 -1,6 C -0,8 C 2,7 C -1,9 C 87 % 1021,8 hPa 0,0 l/m 0,2 km/h (0 Bft) S-SO 157 -3,5 C -1,6 C 0,0 km/h (0 Bft)
17.12.2018 08:44 -1,8 C -0,8 C 2,7 C -1,9 C 87 % 1021,8 hPa 0,0 l/m 0,2 km/h (0 Bft) S 180 -3,7 C -1,8 C 0,0 km/h (0 Bft)
17.12.2018 08:42 -1,8 C -0,8 C 2,6 C -1,9 C 87 % 1021,8 hPa 0,0 l/m 0,2 km/h (0 Bft) O-SO 112 -3,7 C -1,8 C 0,0 km/h (0 Bft)
17.12.2018 08:40 -1,8 C -0,8 C 2,7 C -1,9 C 87 % 1021,8 hPa 0,0 l/m 0,2 km/h (0 Bft) O-SO 112 -3,7 C -1,8 C 0,0 km/h (0 Bft)
17.12.2018 08:38 -1,8 C -0,8 C 2,7 C -2,0 C 87 % 1021,8 hPa 0,0 l/m 0,2 km/h (0 Bft) SO 135 -3,7 C -1,8 C 0,0 km/h (0 Bft)
17.12.2018 08:36 -1,9 C -0,8 C 2,6 C -2,0 C 87 % 1021,8 hPa 0,0 l/m 0,2 km/h (0 Bft) O 90 -3,8 C -1,9 C 2,1 km/h (1 Bft)
17.12.2018 08:34 -1,9 C -0,8 C 2,7 C -2,0 C 87 % 1021,8 hPa 0,0 l/m 0,0 km/h (0 Bft) O 90 -3,8 C -1,9 C 2,1 km/h (1 Bft)
17.12.2018 08:32 -1,9 C -0,8 C 2,7 C -2,0 C 87 % 1021,8 hPa 0,0 l/m 0,0 km/h (0 Bft) O-SO 112 -3,8 C -1,9 C 0,0 km/h (0 Bft)
17.12.2018 08:30 -2,0 C -0,8 C 2,6 C -2,0 C 87 % 1021,8 hPa 0,0 l/m 0,0 km/h (0 Bft) O-SO 112 -3,9 C -2,0 C 0,0 km/h (0 Bft)
17.12.2018 08:28 -2,0 C -0,9 C 2,7 C -2,0 C 87 % 1021,8 hPa 0,0 l/m 0,0 km/h (0 Bft) O 90 -3,9 C -2,0 C 0,0 km/h (0 Bft)
17.12.2018 08:26 -2,0 C -0,9 C 2,7 C -2,1 C 87 % 1021,8 hPa 0,0 l/m 0,0 km/h (0 Bft) S 180 -3,9 C -2,0 C 0,0 km/h (0 Bft)
17.12.2018 08:24 -2,2 C -1,0 C 2,7 C -2,1 C 87 % 1021,8 hPa 0,0 l/m 0,0 km/h (0 Bft) S-SO 157 -4,1 C -2,2 C 0,0 km/h (0 Bft)
17.12.2018 08:22 -2,2 C -1,0 C 2,7 C -2,1 C 87 % 1021,8 hPa 0,0 l/m 0,2 km/h (0 Bft) S-SO 157 -4,1 C -2,2 C 0,0 km/h (0 Bft)
17.12.2018 08:20 -2,2 C -1,0 C 2,7 C -2,1 C 87 % 1021,8 hPa 0,0 l/m 0,2 km/h (0 Bft) S-SO 157 -4,1 C -2,2 C 0,0 km/h (0 Bft)
17.12.2018 08:18 -2,2 C -1,0 C 2,7 C -2,1 C 87 % 1021,8 hPa 0,0 l/m 0,2 km/h (0 Bft) S 180 -4,1 C -2,2 C 0,0 km/h (0 Bft)
17.12.2018 08:16 -2,2 C -1,2 C 2,7 C -2,1 C 87 % 1021,8 hPa 0,0 l/m 0,2 km/h (0 Bft) S-SW 202 -4,1 C -2,2 C 0,0 km/h (0 Bft)
17.12.2018 08:14 -2,2 C -1,2 C 2,6 C -2,2 C 87 % 1021,8 hPa 0,0 l/m 0,2 km/h (0 Bft) S-SO 157 -4,1 C -2,2 C 2,5 km/h (1 Bft)
17.12.2018 08:12 -2,3 C -1,2 C 2,7 C -2,2 C 87 % 1021,8 hPa 0,0 l/m 0,2 km/h (0 Bft) S 180 -4,2 C -2,3 C 2,5 km/h (1 Bft)
17.12.2018 08:10 -2,3 C -1,2 C 2,7 C -2,3 C 87 % 1021,8 hPa 0,0 l/m 0,2 km/h (0 Bft) S-SO 157 -4,2 C -2,3 C 0,0 km/h (0 Bft)
17.12.2018 08:08 -2,3 C -1,2 C 2,8 C -2,2 C 87 % 1021,8 hPa 0,0 l/m 0,0 km/h (0 Bft) S-SO 157 -4,2 C -2,3 C 1,9 km/h (1 Bft)
17.12.2018 08:06 -2,3 C -1,1 C 2,6 C -2,2 C 87 % 1021,4 hPa 0,0 l/m 0,0 km/h (0 Bft) S-SO 157 -4,2 C -2,3 C 1,9 km/h (1 Bft)
17.12.2018 08:04 -2,3 C -1,2 C 2,8 C -2,3 C 87 % 1021,4 hPa 0,0 l/m 0,0 km/h (0 Bft) O-SO 112 -4,2 C -2,3 C 0,0 km/h (0 Bft)
17.12.2018 08:02 -2,3 C -1,1 C 2,8 C -2,3 C 87 % 1021,4 hPa 0,0 l/m 0,0 km/h (0 Bft) O-SO 112 -4,2 C -2,3 C 0,0 km/h (0 Bft)
17.12.2018 08:00 -2,3 C -1,1 C 2,6 C -2,3 C 87 % 1021,4 hPa 0,0 l/m 0,0 km/h (0 Bft) S-SO 157 -4,2 C -2,3 C 0,0 km/h (0 Bft)
17.12.2018 07:58 -2,4 C -1,2 C 2,6 C -2,3 C 87 % 1021,4 hPa 0,0 l/m 0,0 km/h (0 Bft) O-SO 112 -4,3 C -2,4 C 0,0 km/h (0 Bft)
17.12.2018 07:56 -2,4 C -1,2 C 2,6 C -2,4 C 87 % 1021,4 hPa 0,0 l/m 0,0 km/h (0 Bft) NW 315 -4,3 C -2,4 C 0,0 km/h (0 Bft)
17.12.2018 07:54 -2,4 C -1,3 C 2,8 C -2,4 C 87 % 1021,4 hPa 0,0 l/m 0,0 km/h (0 Bft) NW 315 -4,3 C -2,4 C 0,0 km/h (0 Bft)
17.12.2018 07:52 -2,4 C -1,3 C 2,8 C -2,4 C 87 % 1021,4 hPa 0,0 l/m 0,0 km/h (0 Bft) NW 315 -4,3 C -2,4 C 0,0 km/h (0 Bft)
17.12.2018 07:50 -2,4 C -1,3 C 2,6 C -2,5 C 87 % 1021,4 hPa 0,0 l/m 0,0 km/h (0 Bft) NW 315 -4,3 C -2,4 C 0,0 km/h (0 Bft)
17.12.2018 07:48 -2,4 C -1,3 C 2,6 C -2,5 C 87 % 1021,4 hPa 0,0 l/m 0,0 km/h (0 Bft) NW 315 -4,3 C -2,4 C 0,0 km/h (0 Bft)
17.12.2018 07:46 -2,4 C -1,1 C 2,8 C -2,5 C 87 % 1021,6 hPa 0,0 l/m 0,0 km/h (0 Bft) NW 315 -4,3 C -2,4 C 0,0 km/h (0 Bft)
17.12.2018 07:44 -2,4 C -1,1 C 2,6 C -2,5 C 87 % 1021,6 hPa 0,0 l/m 0,0 km/h (0 Bft) N-NO 22 -4,3 C -2,4 C 0,0 km/h (0 Bft)
17.12.2018 07:42 -2,6 C -1,3 C 2,6 C -2,5 C 87 % 1021,6 hPa 0,0 l/m 0,0 km/h (0 Bft) W-NW 292 -4,5 C -2,6 C 0,0 km/h (0 Bft)
17.12.2018 07:40 -2,6 C -1,3 C 2,6 C -2,5 C 87 % 1021,6 hPa 0,0 l/m 0,2 km/h (0 Bft) W-NW 292 -4,5 C -2,6 C 0,0 km/h (0 Bft)
17.12.2018 07:38 -2,6 C -1,3 C 2,6 C -2,5 C 87 % 1021,6 hPa 0,0 l/m 0,2 km/h (0 Bft) N-NW 337 -4,5 C -2,6 C 0,0 km/h (0 Bft)
17.12.2018 07:36 -2,6 C -1,3 C 2,6 C -2,5 C 87 % 1021,6 hPa 0,0 l/m 0,2 km/h (0 Bft) N-NW 337 -4,5 C -2,6 C 0,0 km/h (0 Bft)
17.12.2018 07:34 -2,6 C -1,4 C 2,6 C -2,5 C 87 % 1021,6 hPa 0,0 l/m 0,2 km/h (0 Bft) O 90 -4,5 C -2,6 C 0,0 km/h (0 Bft)
17.12.2018 07:32 -2,6 C -1,4 C 2,6 C -2,5 C 87 % 1021,6 hPa 0,0 l/m 0,2 km/h (0 Bft) O-SO 112 -4,5 C -2,6 C 2,5 km/h (1 Bft)
17.12.2018 07:30 -2,6 C -1,4 C 2,6 C -2,5 C 87 % 1021,6 hPa 0,0 l/m 0,2 km/h (0 Bft) SO 135 -4,5 C -2,6 C 2,5 km/h (1 Bft)
17.12.2018 07:28 -2,6 C -1,4 C 2,6 C -2,5 C 87 % 1021,6 hPa 0,0 l/m 0,0 km/h (0 Bft) S-SO 157 -4,5 C -2,6 C 0,0 km/h (0 Bft)
17.12.2018 07:26 -2,6 C -1,4 C 2,6 C -2,5 C 87 % 1021,2 hPa 0,0 l/m 0,0 km/h (0 Bft) S-SO 157 -4,5 C -2,6 C 1,9 km/h (1 Bft)
17.12.2018 07:24 -2,6 C -1,6 C 2,6 C -2,5 C 87 % 1021,2 hPa 0,0 l/m 0,0 km/h (0 Bft) O 90 -4,5 C -2,6 C 1,9 km/h (1 Bft)
17.12.2018 07:22 -2,7 C -1,5 C 2,8 C -2,5 C 87 % 1021,2 hPa 0,0 l/m 0,0 km/h (0 Bft) S 180 -4,6 C -2,7 C 0,0 km/h (0 Bft)
17.12.2018 07:20 -2,7 C -1,5 C 2,6 C -2,5 C 87 % 1021,2 hPa 0,0 l/m 0,0 km/h (0 Bft) S-SO 157 -4,6 C -2,7 C 0,0 km/h (0 Bft)
17.12.2018 07:18 -2,7 C -1,5 C 2,6 C -2,5 C 87 % 1021,2 hPa 0,0 l/m 0,0 km/h (0 Bft) S-SO 157 -4,6 C -2,7 C 0,0 km/h (0 Bft)
17.12.2018 07:16 -2,7 C -1,4 C 2,6 C -2,6 C 87 % 1021,2 hPa 0,0 l/m 0,0 km/h (0 Bft) S-SO 157 -4,6 C -2,7 C 0,0 km/h (0 Bft)
17.12.2018 07:14 -2,7 C -1,4 C 2,6 C -2,6 C 87 % 1021,2 hPa 0,0 l/m 0,0 km/h (0 Bft) O-SO 112 -4,6 C -2,7 C 0,0 km/h (0 Bft)
17.12.2018 07:12 -2,7 C -1,3 C 2,6 C -2,6 C 87 % 1021,2 hPa 0,0 l/m 0,0 km/h (0 Bft) O-SO 112 -4,6 C -2,7 C 0,0 km/h (0 Bft)
17.12.2018 07:10 -2,8 C -1,3 C 2,6 C -2,6 C 87 % 1021,2 hPa 0,0 l/m 0,0 km/h (0 Bft) O-SO 112 -4,7 C -2,8 C 0,0 km/h (0 Bft)
17.12.2018 07:08 -2,8 C -1,4 C 2,6 C -2,7 C 87 % 1021,2 hPa 0,0 l/m 0,0 km/h (0 Bft) O 90 -4,7 C -2,8 C 0,0 km/h (0 Bft)
17.12.2018 07:06 -2,8 C -1,5 C 2,6 C -2,7 C 87 % 1020,8 hPa 0,0 l/m 0,0 km/h (0 Bft) NO 45 -4,7 C -2,8 C 0,0 km/h (0 Bft)
17.12.2018 07:04 -2,8 C -1,5 C 2,6 C -2,7 C 87 % 1020,8 hPa 0,0 l/m 0,0 km/h (0 Bft) NO 45 -4,7 C -2,8 C 0,0 km/h (0 Bft)
17.12.2018 07:02 -2,8 C -1,5 C 2,8 C -2,7 C 87 % 1020,8 hPa 0,0 l/m 0,0 km/h (0 Bft) O 90 -4,7 C -2,8 C 0,0 km/h (0 Bft)
17.12.2018 07:00 -3,0 C -1,5 C 2,6 C -2,7 C 87 % 1020,8 hPa 0,0 l/m 0,0 km/h (0 Bft) O-NO 67 -4,9 C -3,0 C 0,0 km/h (0 Bft)
17.12.2018 06:58 -3,0 C -1,7 C 2,6 C -2,7 C 87 % 1020,8 hPa 0,0 l/m 0,0 km/h (0 Bft) O-SO 112 -4,9 C -3,0 C 0,0 km/h (0 Bft)
17.12.2018 06:56 -3,0 C -1,7 C 2,6 C -2,8 C 87 % 1020,8 hPa 0,0 l/m 0,0 km/h (0 Bft) O-SO 112 -4,9 C -3,0 C 0,0 km/h (0 Bft)
17.12.2018 06:54 -3,0 C -1,8 C 2,6 C -2,8 C 87 % 1020,8 hPa 0,0 l/m 0,0 km/h (0 Bft) S 180 -4,9 C -3,0 C 0,0 km/h (0 Bft)
17.12.2018 06:52 -3,0 C -2,0 C 2,6 C -2,8 C 87 % 1020,8 hPa 0,0 l/m 0,0 km/h (0 Bft) S 180 -4,9 C -3,0 C 0,0 km/h (0 Bft)
17.12.2018 06:50 -3,1 C -2,0 C 2,8 C -2,8 C 87 % 1020,8 hPa 0,0 l/m 0,0 km/h (0 Bft) S-SO 157 -4,9 C -3,1 C 0,0 km/h (0 Bft)
17.12.2018 06:48 -3,1 C -2,1 C 2,6 C -2,9 C 87 % 1020,8 hPa 0,0 l/m 0,0 km/h (0 Bft) S-SO 157 -4,9 C -3,1 C 0,0 km/h (0 Bft)
17.12.2018 06:46 -3,1 C -2,1 C 2,6 C -2,9 C 87 % 1020,6 hPa 0,0 l/m 0,0 km/h (0 Bft) S-SO 157 -4,9 C -3,1 C 0,0 km/h (0 Bft)
17.12.2018 06:44 -3,2 C -2,2 C 2,6 C -2,9 C 87 % 1020,6 hPa 0,0 l/m 0,0 km/h (0 Bft) S-SO 157 -5,0 C -3,2 C 0,0 km/h (0 Bft)
17.12.2018 06:42 -3,2 C -2,4 C 2,6 C -2,9 C 87 % 1020,6 hPa 0,0 l/m 0,0 km/h (0 Bft) W-SW 247 -5,0 C -3,2 C 0,0 km/h (0 Bft)
17.12.2018 06:40 -3,2 C -2,4 C 2,6 C -2,9 C 87 % 1020,6 hPa 0,0 l/m 0,0 km/h (0 Bft) W-SW 247 -5,0 C -3,2 C 0,0 km/h (0 Bft)
17.12.2018 06:38 -3,4 C -2,5 C 2,6 C -2,9 C 86 % 1020,6 hPa 0,0 l/m 0,0 km/h (0 Bft) W 270 -5,4 C -3,4 C 0,0 km/h (0 Bft)
17.12.2018 06:36 -3,4 C -2,8 C 2,6 C -2,9 C 86 % 1020,6 hPa 0,0 l/m 0,2 km/h (0 Bft) S 180 -5,4 C -3,4 C 0,0 km/h (0 Bft)
17.12.2018 06:34 -3,4 C -2,8 C 2,8 C -2,9 C 86 % 1020,6 hPa 0,0 l/m 0,2 km/h (0 Bft) S 180 -5,4 C -3,4 C 0,0 km/h (0 Bft)
17.12.2018 06:32 -3,4 C -2,8 C 2,6 C -2,9 C 86 % 1020,6 hPa 0,0 l/m 0,2 km/h (0 Bft) S 180 -5,4 C -3,4 C 0,0 km/h (0 Bft)
17.12.2018 06:30 -3,4 C -2,8 C 2,8 C -2,9 C 86 % 1020,6 hPa 0,0 l/m 0,2 km/h (0 Bft) S 180 -5,4 C -3,4 C 0,0 km/h (0 Bft)
17.12.2018 06:28 -3,4 C -2,8 C 2,8 C -2,9 C 86 % 1020,6 hPa 0,0 l/m 0,2 km/h (0 Bft) S 180 -5,4 C -3,4 C 0,0 km/h (0 Bft)
17.12.2018 06:26 -3,2 C -2,6 C 2,8 C -2,9 C 86 % 1020,8 hPa 0,0 l/m 0,0 km/h (0 Bft) S 180 -5,2 C -3,2 C 0,0 km/h (0 Bft)
17.12.2018 06:24 -3,2 C -2,5 C 2,8 C -2,9 C 86 % 1020,8 hPa 0,0 l/m 0,0 km/h (0 Bft) S-SW 202 -5,2 C -3,2 C 0,0 km/h (0 Bft)
17.12.2018 06:22 -3,2 C -2,3 C 2,8 C -2,9 C 86 % 1020,8 hPa 0,0 l/m 0,0 km/h (0 Bft) S-SO 157 -5,2 C -3,2 C 0,0 km/h (0 Bft)
17.12.2018 06:20 -3,1 C -2,3 C 2,8 C -2,9 C 86 % 1020,8 hPa 0,0 l/m 0,0 km/h (0 Bft) S-SO 157 -5,1 C -3,1 C 0,0 km/h (0 Bft)
17.12.2018 06:18 -3,1 C -2,2 C 2,8 C -2,9 C 86 % 1020,8 hPa 0,0 l/m 0,0 km/h (0 Bft) S-SO 157 -5,1 C -3,1 C 0,0 km/h (0 Bft)
17.12.2018 06:16 -3,1 C -2,2 C 2,8 C -2,9 C 86 % 1020,8 hPa 0,0 l/m 0,0 km/h (0 Bft) SW 225 -5,1 C -3,1 C 1,9 km/h (1 Bft)
17.12.2018 06:14 -3,1 C -2,2 C 2,8 C -2,9 C 86 % 1020,8 hPa 0,0 l/m 0,0 km/h (0 Bft) W-SW 247 -5,1 C -3,1 C 1,9 km/h (1 Bft)
17.12.2018 06:12 -3,1 C -2,2 C 2,8 C -2,9 C 86 % 1020,8 hPa 0,0 l/m 0,0 km/h (0 Bft) S-SO 157 -5,1 C -3,1 C 1,9 km/h (1 Bft)
17.12.2018 06:10 -3,1 C -2,2 C 2,8 C -2,9 C 86 % 1020,8 hPa 0,0 l/m 0,5 km/h (0 Bft) SW 225 -5,1 C -3,1 C 1,9 km/h (1 Bft)
17.12.2018 06:08 -3,1 C -2,2 C 2,8 C -2,9 C 86 % 1020,8 hPa 0,0 l/m 0,5 km/h (0 Bft) SW 225 -5,1 C -3,1 C 1,9 km/h (1 Bft)
17.12.2018 06:06 -3,1 C -2,2 C 2,8 C -2,9 C 86 % 1020,3 hPa 0,0 l/m 0,5 km/h (0 Bft) SW 225 -5,1 C -3,1 C 1,9 km/h (1 Bft)
17.12.2018 06:04 -3,1 C -2,2 C 2,8 C -2,9 C 86 % 1020,3 hPa 0,0 l/m 0,5 km/h (0 Bft) SW 225 -5,1 C -3,1 C 1,9 km/h (1 Bft)
17.12.2018 06:02 -3,1 C -2,2 C 2,8 C -2,9 C 86 % 1020,3 hPa 0,0 l/m 0,5 km/h (0 Bft) SW 225 -5,1 C -3,1 C 2,1 km/h (1 Bft)
17.12.2018 06:00 -3,1 C -2,2 C 2,8 C -2,9 C 86 % 1020,3 hPa 0,0 l/m 0,5 km/h (0 Bft) W-SW 247 -5,1 C -3,1 C 2,1 km/h (1 Bft)
17.12.2018 05:58 -3,1 C -2,2 C 2,8 C -2,9 C 86 % 1020,3 hPa 0,0 l/m 0,5 km/h (0 Bft) W-SW 247 -5,1 C -3,1 C 0,0 km/h (0 Bft)
17.12.2018 05:56 -3,1 C -2,1 C 2,8 C -2,9 C 86 % 1020,3 hPa 0,0 l/m 0,5 km/h (0 Bft) S 180 -5,1 C -3,1 C 3,5 km/h (1 Bft)
17.12.2018 05:54 -3,1 C -2,1 C 2,8 C -2,9 C 86 % 1020,3 hPa 0,0 l/m 0,5 km/h (0 Bft) S-SO 157 -5,1 C -3,1 C 3,5 km/h (1 Bft)
17.12.2018 05:52 -3,1 C -2,3 C 2,8 C -2,9 C 86 % 1020,3 hPa 0,0 l/m 0,3 km/h (0 Bft) S-SW 202 -5,1 C -3,1 C 2,7 km/h (1 Bft)
17.12.2018 05:50 -3,1 C -2,2 C 2,8 C -2,9 C 86 % 1020,3 hPa 0,0 l/m 0,3 km/h (0 Bft) S 180 -5,1 C -3,1 C 2,7 km/h (1 Bft)
17.12.2018 05:48 -3,1 C -2,4 C 2,8 C -2,9 C 86 % 1020,3 hPa 0,0 l/m 0,2 km/h (0 Bft) S-SO 157 -5,1 C -3,1 C 0,0 km/h (0 Bft)
17.12.2018 05:46 -3,1 C -2,4 C 2,8 C -2,9 C 86 % 1020,4 hPa 0,0 l/m 0,2 km/h (0 Bft) S-SW 202 -5,1 C -3,1 C 2,3 km/h (1 Bft)
17.12.2018 05:44 -3,1 C -2,4 C 2,8 C -2,9 C 86 % 1020,4 hPa 0,0 l/m 0,2 km/h (0 Bft) S 180 -5,1 C -3,1 C 2,3 km/h (1 Bft)
17.12.2018 05:42 -3,1 C -2,4 C 2,8 C -2,9 C 86 % 1020,4 hPa 0,0 l/m 0,2 km/h (0 Bft) S-SO 157 -5,1 C -3,1 C 0,0 km/h (0 Bft)
17.12.2018 05:40 -3,1 C -2,4 C 2,8 C -2,9 C 86 % 1020,4 hPa 0,0 l/m 0,2 km/h (0 Bft) W-SW 247 -5,1 C -3,1 C 0,0 km/h (0 Bft)
17.12.2018 05:38 -3,2 C -2,5 C 2,8 C -2,9 C 86 % 1020,4 hPa 0,0 l/m 0,2 km/h (0 Bft) S-SO 157 -5,2 C -3,2 C 0,0 km/h (0 Bft)
17.12.2018 05:36 -3,2 C -2,5 C 2,8 C -2,9 C 86 % 1020,4 hPa 0,0 l/m 0,3 km/h (0 Bft) W-SW 247 -5,2 C -3,2 C 0,0 km/h (0 Bft)
17.12.2018 05:34 -3,2 C -2,6 C 2,8 C -2,9 C 86 % 1020,4 hPa 0,0 l/m 0,3 km/h (0 Bft) SW 225 -5,2 C -3,2 C 0,0 km/h (0 Bft)
17.12.2018 05:32 -3,2 C -2,6 C 2,8 C -2,9 C 86 % 1020,4 hPa 0,0 l/m 0,3 km/h (0 Bft) S-SW 202 -5,2 C -3,2 C 1,9 km/h (1 Bft)
17.12.2018 05:30 -3,2 C -2,6 C 2,8 C -2,9 C 86 % 1020,4 hPa 0,0 l/m 0,3 km/h (0 Bft) S 180 -5,2 C -3,2 C 1,9 km/h (1 Bft)
17.12.2018 05:28 -3,2 C -2,6 C 2,8 C -2,9 C 86 % 1020,4 hPa 0,0 l/m 0,3 km/h (0 Bft) S 180 -5,2 C -3,2 C 1,9 km/h (1 Bft)
17.12.2018 05:26 -3,2 C -2,6 C 2,8 C -2,9 C 86 % 1019,8 hPa 0,0 l/m 0,3 km/h (0 Bft) S 180 -5,2 C -3,2 C 1,9 km/h (1 Bft)
17.12.2018 05:24 -3,2 C -2,6 C 2,8 C -2,9 C 86 % 1019,8 hPa 0,0 l/m 0,2 km/h (0 Bft) S 180 -5,2 C -3,2 C 2,1 km/h (1 Bft)
17.12.2018 05:22 -3,2 C -2,6 C 2,8 C -2,9 C 86 % 1019,8 hPa 0,0 l/m 0,5 km/h (0 Bft) S-SW 202 -5,2 C -3,2 C 2,1 km/h (1 Bft)
17.12.2018 05:20 -3,2 C -2,6 C 2,8 C -2,9 C 86 % 1019,8 hPa 0,0 l/m 0,3 km/h (0 Bft) S-SO 157 -5,2 C -3,2 C 0,0 km/h (0 Bft)
17.12.2018 05:18 -3,2 C -2,6 C 2,8 C -2,9 C 86 % 1019,8 hPa 0,0 l/m 0,5 km/h (0 Bft) W 270 -5,2 C -3,2 C 0,0 km/h (0 Bft)
17.12.2018 05:16 -3,2 C -2,6 C 2,8 C -2,9 C 86 % 1019,8 hPa 0,0 l/m 0,5 km/h (0 Bft) S-SW 202 -5,2 C -3,2 C 0,0 km/h (0 Bft)
17.12.2018 05:14 -3,2 C -2,6 C 2,8 C -2,9 C 86 % 1019,8 hPa 0,0 l/m 0,5 km/h (0 Bft) S-SO 157 -5,2 C -3,2 C 2,3 km/h (1 Bft)
17.12.2018 05:12 -3,1 C -2,5 C 2,8 C -2,9 C 86 % 1019,8 hPa 0,0 l/m 0,3 km/h (0 Bft) O 90 -5,1 C -3,1 C 2,3 km/h (1 Bft)
17.12.2018 05:10 -3,1 C -2,5 C 2,8 C -2,9 C 86 % 1019,8 hPa 0,0 l/m 0,3 km/h (0 Bft) O-SO 112 -5,1 C -3,1 C 1,9 km/h (1 Bft)
17.12.2018 05:08 -3,1 C -2,5 C 2,8 C -2,9 C 86 % 1019,8 hPa 0,0 l/m 0,3 km/h (0 Bft) NO 45 -5,1 C -3,1 C 1,9 km/h (1 Bft)
17.12.2018 05:06 -3,1 C -2,5 C 2,8 C -2,9 C 86 % 1019,7 hPa 0,0 l/m 0,5 km/h (0 Bft) S-SO 157 -5,1 C -3,1 C 0,0 km/h (0 Bft)
17.12.2018 05:04 -3,1 C -2,6 C 2,8 C -2,9 C 86 % 1019,7 hPa 0,0 l/m 0,5 km/h (0 Bft) S-SO 157 -5,1 C -3,1 C 0,0 km/h (0 Bft)
17.12.2018 05:02 -3,1 C -2,6 C 2,8 C -2,9 C 86 % 1019,7 hPa 0,0 l/m 0,5 km/h (0 Bft) S 180 -5,1 C -3,1 C 2,1 km/h (1 Bft)
17.12.2018 05:00 -3,0 C -2,5 C 2,8 C -2,9 C 86 % 1019,7 hPa 0,0 l/m 0,5 km/h (0 Bft) S 180 -5,0 C -3,0 C 2,3 km/h (1 Bft)
17.12.2018 04:58 -3,0 C -2,6 C 2,8 C -2,9 C 86 % 1019,7 hPa 0,0 l/m 0,3 km/h (0 Bft) S 180 -5,0 C -3,0 C 2,3 km/h (1 Bft)
17.12.2018 04:56 -3,0 C -2,5 C 2,8 C -2,9 C 86 % 1019,7 hPa 0,0 l/m 0,0 km/h (0 Bft) S-SW 202 -5,0 C -3,0 C 0,0 km/h (0 Bft)
17.12.2018 04:54 -3,0 C -2,5 C 2,8 C -2,9 C 86 % 1019,7 hPa 0,0 l/m 0,0 km/h (0 Bft) O-SO 112 -5,0 C -3,0 C 0,0 km/h (0 Bft)
17.12.2018 04:52 -3,0 C -2,5 C 2,8 C -2,9 C 86 % 1019,7 hPa 0,0 l/m 0,0 km/h (0 Bft) O-SO 112 -5,0 C -3,0 C 0,0 km/h (0 Bft)
17.12.2018 04:50 -3,0 C -2,4 C 2,8 C -2,9 C 86 % 1019,7 hPa 0,0 l/m 0,0 km/h (0 Bft) S-SO 157 -5,0 C -3,0 C 0,0 km/h (0 Bft)
17.12.2018 04:48 -3,0 C -2,0 C 2,8 C -2,9 C 86 % 1019,7 hPa 0,0 l/m 0,0 km/h (0 Bft) S 180 -5,0 C -3,0 C 0,0 km/h (0 Bft)
17.12.2018 04:46 -3,0 C -1,8 C 2,8 C -2,8 C 86 % 1019,6 hPa 0,0 l/m 0,2 km/h (0 Bft) O 90 -5,0 C -3,0 C 0,0 km/h (0 Bft)
17.12.2018 04:44 -2,8 C -1,5 C 2,8 C -2,8 C 86 % 1019,6 hPa 0,0 l/m 0,2 km/h (0 Bft) NO 45 -4,8 C -2,8 C 0,0 km/h (0 Bft)
17.12.2018 04:42 -2,8 C -1,3 C 2,8 C -2,8 C 86 % 1019,6 hPa 0,0 l/m 0,2 km/h (0 Bft) O 90 -4,8 C -2,8 C 0,0 km/h (0 Bft)
17.12.2018 04:40 -2,8 C -1,7 C 2,8 C -2,7 C 86 % 1019,6 hPa 0,0 l/m 0,3 km/h (0 Bft) N-NO 22 -4,8 C -2,8 C 0,0 km/h (0 Bft)
17.12.2018 04:38 -3,0 C -2,1 C 2,8 C -2,7 C 86 % 1019,6 hPa 0,0 l/m 0,3 km/h (0 Bft) NO 45 -5,0 C -3,0 C 3,3 km/h (1 Bft)
17.12.2018 04:36 -3,0 C -2,1 C 2,8 C -2,7 C 86 % 1019,6 hPa 0,0 l/m 0,2 km/h (0 Bft) N-NO 22 -5,0 C -3,0 C 3,3 km/h (1 Bft)
17.12.2018 04:34 -3,0 C -2,2 C 2,8 C -2,7 C 86 % 1019,6 hPa 0,0 l/m 0,3 km/h (0 Bft) O 90 -5,0 C -3,0 C 0,0 km/h (0 Bft)
17.12.2018 04:32 -3,0 C -2,2 C 2,8 C -2,7 C 86 % 1019,6 hPa 0,0 l/m 0,3 km/h (0 Bft) SO 135 -5,0 C -3,0 C 0,0 km/h (0 Bft)
17.12.2018 04:30 -3,0 C -2,0 C 2,8 C -2,7 C 86 % 1019,6 hPa 0,0 l/m 0,5 km/h (0 Bft) S-SO 157 -5,0 C -3,0 C 0,0 km/h (0 Bft)
17.12.2018 04:28 -2,8 C -2,0 C 2,8 C -2,6 C 86 % 1019,6 hPa 0,0 l/m 0,8 km/h (0 Bft) S-SW 202 -4,8 C -2,8 C 0,0 km/h (0 Bft)
17.12.2018 04:26 -2,8 C -2,0 C 2,8 C -2,6 C 86 % 1019,6 hPa 0,0 l/m 0,8 km/h (0 Bft) S-SW 202 -4,8 C -2,8 C 2,5 km/h (1 Bft)
17.12.2018 04:24 -2,8 C -1,8 C 2,6 C -2,6 C 86 % 1019,6 hPa 0,0 l/m 0,6 km/h (0 Bft) S-SO 157 -4,8 C -2,8 C 2,5 km/h (1 Bft)
17.12.2018 04:22 -2,8 C -1,8 C 2,6 C -2,6 C 86 % 1019,6 hPa 0,0 l/m 1,0 km/h (0 Bft) S 180 -4,8 C -2,8 C 2,3 km/h (1 Bft)
17.12.2018 04:20 -2,8 C -1,8 C 2,6 C -2,6 C 86 % 1019,6 hPa 0,0 l/m 1,1 km/h (1 Bft) S-SO 157 -4,8 C -2,8 C 2,3 km/h (1 Bft)
17.12.2018 04:18 -2,7 C -1,5 C 2,6 C -2,6 C 86 % 1019,6 hPa 0,0 l/m 0,8 km/h (0 Bft) S 180 -4,7 C -2,7 C 0,0 km/h (0 Bft)
17.12.2018 04:16 -2,7 C -1,1 C 2,6 C -2,5 C 86 % 1019,6 hPa 0,0 l/m 1,1 km/h (1 Bft) S-SO 157 -4,7 C -2,7 C 0,0 km/h (0 Bft)
17.12.2018 04:14 -2,7 C -1,0 C 2,6 C -2,5 C 86 % 1019,6 hPa 0,0 l/m 1,1 km/h (1 Bft) O-SO 112 -4,7 C -2,7 C 2,7 km/h (1 Bft)
17.12.2018 04:12 -2,7 C -0,9 C 2,6 C -2,5 C 86 % 1019,6 hPa 0,0 l/m 1,0 km/h (0 Bft) O 90 -4,7 C -2,7 C 2,7 km/h (1 Bft)
17.12.2018 04:10 -2,7 C -1,1 C 2,6 C -2,5 C 86 % 1019,6 hPa 0,0 l/m 0,6 km/h (0 Bft) O 90 -4,7 C -2,7 C 2,5 km/h (1 Bft)
17.12.2018 04:09 -2,7 C -1,0 C 2,6 C -2,5 C 86 % 1019,6 hPa 0,0 l/m 0,5 km/h (0 Bft) NO 45 -4,7 C -2,7 C 0,0 km/h (0 Bft)
17.12.2018 04:06 -2,8 C -2,1 C 2,6 C -2,5 C 85 % 1019,4 hPa 0,0 l/m 0,2 km/h (0 Bft) N-NO 22 -5,0 C -2,8 C 2,3 km/h (1 Bft)
17.12.2018 04:04 -2,8 C -2,2 C 2,6 C -2,5 C 85 % 1019,4 hPa 0,0 l/m 0,0 km/h (0 Bft) N-NO 22 -5,0 C -2,8 C 0,0 km/h (0 Bft)
17.12.2018 04:02 -2,8 C -2,2 C 2,6 C -2,5 C 85 % 1019,4 hPa 0,0 l/m 0,0 km/h (0 Bft) N-NO 22 -5,0 C -2,8 C 0,0 km/h (0 Bft)
17.12.2018 04:00 -2,8 C -2,5 C 2,6 C -2,5 C 85 % 1019,4 hPa 0,0 l/m 0,3 km/h (0 Bft) W 270 -5,0 C -2,8 C 1,9 km/h (1 Bft)
17.12.2018 03:58 -2,8 C -2,6 C 2,6 C -2,5 C 85 % 1019,4 hPa 0,0 l/m 0,6 km/h (0 Bft) W 270 -5,0 C -2,8 C 1,9 km/h (1 Bft)
17.12.2018 03:56 -2,8 C -2,6 C 2,6 C -2,5 C 85 % 1019,4 hPa 0,0 l/m 0,8 km/h (0 Bft) O-SO 112 -5,0 C -2,8 C 0,0 km/h (0 Bft)
17.12.2018 03:54 -2,8 C -2,5 C 2,6 C -2,5 C 85 % 1019,4 hPa 0,0 l/m 0,8 km/h (0 Bft) O-SO 112 -5,0 C -2,8 C 0,0 km/h (0 Bft)
17.12.2018 03:52 -2,7 C -2,5 C 2,6 C -2,5 C 85 % 1019,4 hPa 0,0 l/m 0,8 km/h (0 Bft) O 90 -4,9 C -2,7 C 2,5 km/h (1 Bft)
17.12.2018 03:50 -2,7 C -2,4 C 2,6 C -2,4 C 85 % 1019,4 hPa 0,0 l/m 1,0 km/h (0 Bft) O-SO 112 -4,9 C -2,7 C 2,5 km/h (1 Bft)
17.12.2018 03:48 -2,7 C -2,3 C 2,6 C -2,3 C 85 % 1019,4 hPa 0,0 l/m 0,6 km/h (0 Bft) O 90 -4,9 C -2,7 C 2,5 km/h (1 Bft)
17.12.2018 03:46 -2,7 C -1,8 C 2,6 C -2,3 C 85 % 1019,3 hPa 0,0 l/m 0,3 km/h (0 Bft) NO 45 -4,9 C -2,7 C 2,1 km/h (1 Bft)
17.12.2018 03:44 -2,7 C -2,2 C 2,6 C -2,3 C 85 % 1019,3 hPa 0,0 l/m 0,3 km/h (0 Bft) N-NO 22 -4,9 C -2,7 C 1,9 km/h (1 Bft)
17.12.2018 03:42 -2,7 C -2,4 C 2,6 C -2,3 C 85 % 1019,3 hPa 0,0 l/m 0,3 km/h (0 Bft) N-NO 22 -4,9 C -2,7 C 1,9 km/h (1 Bft)
17.12.2018 03:40 -2,7 C -2,5 C 2,6 C -2,3 C 85 % 1019,3 hPa 0,0 l/m 0,2 km/h (0 Bft) O 90 -4,9 C -2,7 C 0,0 km/h (0 Bft)
17.12.2018 03:39 -2,7 C -2,9 C 2,6 C -2,3 C 85 % 1019,3 hPa 0,0 l/m 0,2 km/h (0 Bft) N-NW 337 -4,9 C -2,7 C 0,0 km/h (0 Bft)
17.12.2018 03:36 -2,6 C -3,1 C 2,6 C -2,2 C 85 % 1019,3 hPa 0,0 l/m 0,2 km/h (0 Bft) N 360 -4,8 C -2,6 C 1,9 km/h (1 Bft)
17.12.2018 03:34 -2,6 C -3,2 C 2,8 C -2,2 C 85 % 1019,3 hPa 0,0 l/m 0,0 km/h (0 Bft) N 360 -4,8 C -2,6 C 1,9 km/h (1 Bft)
17.12.2018 03:32 -2,4 C -3,2 C 2,6 C -2,1 C 85 % 1019,3 hPa 0,0 l/m 0,2 km/h (0 Bft) S-SO 157 -4,6 C -2,4 C 0,0 km/h (0 Bft)
17.12.2018 03:30 -2,4 C -3,1 C 2,6 C -2,1 C 85 % 1019,3 hPa 0,0 l/m 0,2 km/h (0 Bft) S-SO 157 -4,6 C -2,4 C 0,0 km/h (0 Bft)
17.12.2018 03:28 -2,3 C -2,8 C 2,7 C -2,0 C 85 % 1019,3 hPa 0,0 l/m 0,2 km/h (0 Bft) S-SO 157 -4,5 C -2,3 C 0,0 km/h (0 Bft)
17.12.2018 03:26 -2,3 C -2,8 C 2,7 C -1,9 C 85 % 1019,5 hPa 0,0 l/m 0,2 km/h (0 Bft) W-NW 292 -4,5 C -2,3 C 0,0 km/h (0 Bft)
17.12.2018 03:24 -2,2 C -2,4 C 2,6 C -1,9 C 85 % 1019,5 hPa 0,0 l/m 0,3 km/h (0 Bft) S-SO 157 -4,4 C -2,2 C 1,9 km/h (1 Bft)
17.12.2018 03:22 -2,0 C -2,0 C 2,6 C -1,8 C 85 % 1019,5 hPa 0,0 l/m 0,3 km/h (0 Bft) S-SO 157 -4,2 C -2,0 C 1,9 km/h (1 Bft)
17.12.2018 03:20 -1,9 C -1,8 C 2,6 C -1,7 C 85 % 1019,5 hPa 0,0 l/m 0,5 km/h (0 Bft) S-SO 157 -4,1 C -1,9 C 0,0 km/h (0 Bft)
17.12.2018 03:19 -1,8 C -1,3 C 2,6 C -1,7 C 85 % 1019,5 hPa 0,0 l/m 0,5 km/h (0 Bft) SO 135 -4,0 C -1,8 C 0,0 km/h (0 Bft)
17.12.2018 03:16 -1,8 C -0,8 C 2,6 C -1,6 C 85 % 1019,5 hPa 0,0 l/m 0,5 km/h (0 Bft) N-NO 22 -4,0 C -1,8 C 1,9 km/h (1 Bft)
17.12.2018 03:14 -1,6 C -0,6 C 2,6 C -1,4 C 85 % 1019,5 hPa 0,0 l/m 0,5 km/h (0 Bft) O-SO 112 -3,8 C -1,6 C 2,1 km/h (1 Bft)
17.12.2018 03:12 -1,5 C -0,2 C 2,6 C -1,4 C 85 % 1019,5 hPa 0,0 l/m 0,3 km/h (0 Bft) O-SO 112 -3,7 C -1,5 C 2,1 km/h (1 Bft)
17.12.2018 03:10 -1,5 C -0,2 C 2,6 C -1,3 C 85 % 1019,5 hPa 0,0 l/m 0,2 km/h (0 Bft) NO 45 -3,7 C -1,5 C 0,0 km/h (0 Bft)
17.12.2018 03:08 -1,5 C -0,2 C 2,6 C -1,3 C 85 % 1019,5 hPa 0,0 l/m 0,2 km/h (0 Bft) NO 45 -3,7 C -1,5 C 0,0 km/h (0 Bft)
17.12.2018 03:06 -1,5 C -0,2 C 2,6 C -1,3 C 85 % 1019,6 hPa 0,0 l/m 0,2 km/h (0 Bft) NO 45 -3,7 C -1,5 C 0,0 km/h (0 Bft)
17.12.2018 03:04 -1,5 C -0,2 C 2,6 C -1,3 C 85 % 1019,6 hPa 0,0 l/m 0,2 km/h (0 Bft) NO 45 -3,7 C -1,5 C 0,0 km/h (0 Bft)
17.12.2018 03:02 -1,5 C -0,2 C 2,6 C -1,3 C 85 % 1019,6 hPa 0,0 l/m 0,2 km/h (0 Bft) NO 45 -3,7 C -1,5 C 0,0 km/h (0 Bft)
17.12.2018 03:00 -1,5 C -0,2 C 2,6 C -1,3 C 85 % 1019,6 hPa 0,0 l/m 0,2 km/h (0 Bft) O-SO 112 -3,7 C -1,5 C 0,0 km/h (0 Bft)
17.12.2018 02:58 -1,5 C -0,2 C 2,6 C -1,3 C 85 % 1019,6 hPa 0,0 l/m 0,3 km/h (0 Bft) O 90 -3,7 C -1,5 C 0,0 km/h (0 Bft)
17.12.2018 02:56 -1,5 C -0,3 C 2,6 C -1,4 C 85 % 1019,6 hPa 0,0 l/m 0,3 km/h (0 Bft) S 180 -3,7 C -1,5 C 0,0 km/h (0 Bft)
17.12.2018 02:54 -1,5 C -0,3 C 2,6 C -1,4 C 85 % 1019,6 hPa 0,0 l/m 0,3 km/h (0 Bft) S 180 -3,7 C -1,5 C 0,0 km/h (0 Bft)
17.12.2018 02:52 -1,5 C -0,3 C 2,6 C -1,4 C 85 % 1019,6 hPa 0,0 l/m 0,3 km/h (0 Bft) S 180 -3,7 C -1,5 C 0,0 km/h (0 Bft)
17.12.2018 02:50 -1,5 C -0,3 C 2,6 C -1,4 C 85 % 1019,6 hPa 0,0 l/m 0,0 km/h (0 Bft) S 180 -3,7 C -1,5 C 0,0 km/h (0 Bft)
17.12.2018 02:49 -1,5 C -0,3 C 2,6 C -1,4 C 85 % 1019,6 hPa 0,0 l/m 0,0 km/h (0 Bft) SO 135 -3,7 C -1,5 C 2,3 km/h (1 Bft)
17.12.2018 02:46 -1,5 C -0,3 C 2,6 C -1,4 C 85 % 1019,6 hPa 0,0 l/m 0,0 km/h (0 Bft) S-SO 157 -3,7 C -1,5 C 0,0 km/h (0 Bft)
17.12.2018 02:44 -1,5 C -0,3 C 2,6 C -1,4 C 85 % 1019,6 hPa 0,0 l/m 0,0 km/h (0 Bft) S-SO 157 -3,7 C -1,5 C 0,0 km/h (0 Bft)
17.12.2018 02:42 -1,5 C -0,3 C 2,6 C -1,4 C 85 % 1019,6 hPa 0,0 l/m 0,0 km/h (0 Bft) SO 135 -3,7 C -1,5 C 0,0 km/h (0 Bft)
17.12.2018 02:40 -1,5 C -0,2 C 2,6 C -1,4 C 85 % 1019,6 hPa 0,0 l/m 0,0 km/h (0 Bft) S-SO 157 -3,7 C -1,5 C 0,0 km/h (0 Bft)
17.12.2018 02:39 -1,5 C -0,2 C 2,6 C -1,4 C 85 % 1019,6 hPa 0,0 l/m 0,0 km/h (0 Bft) N 360 -3,7 C -1,5 C 0,0 km/h (0 Bft)
17.12.2018 02:36 -1,5 C 0,1 C 2,6 C -1,4 C 85 % 1019,6 hPa 0,0 l/m 0,0 km/h (0 Bft) N 360 -3,7 C -1,5 C 0,0 km/h (0 Bft)
17.12.2018 02:34 -1,6 C 0,1 C 2,6 C -1,5 C 85 % 1019,6 hPa 0,0 l/m 0,0 km/h (0 Bft) N 360 -3,8 C -1,6 C 0,0 km/h (0 Bft)
17.12.2018 02:32 -1,6 C 0,1 C 2,6 C -1,5 C 85 % 1019,6 hPa 0,0 l/m 0,0 km/h (0 Bft) N 360 -3,8 C -1,6 C 0,0 km/h (0 Bft)
17.12.2018 02:30 -1,6 C 0,2 C 2,6 C -1,5 C 85 % 1019,6 hPa 0,0 l/m 0,0 km/h (0 Bft) N 360 -3,8 C -1,6 C 0,0 km/h (0 Bft)
17.12.2018 02:28 -1,6 C 0,3 C 2,6 C -1,5 C 85 % 1019,6 hPa 0,0 l/m 0,2 km/h (0 Bft) N-NO 22 -3,8 C -1,6 C 1,9 km/h (1 Bft)
17.12.2018 02:26 -1,6 C 0,3 C 2,6 C -1,5 C 85 % 1019,3 hPa 0,0 l/m 0,2 km/h (0 Bft) NO 45 -3,8 C -1,6 C 1,9 km/h (1 Bft)
17.12.2018 02:24 -1,6 C 0,3 C 2,6 C -1,5 C 85 % 1019,3 hPa 0,0 l/m 0,5 km/h (0 Bft) NO 45 -3,8 C -1,6 C 0,0 km/h (0 Bft)
17.12.2018 02:22 -1,6 C 0,1 C 2,6 C -1,4 C 85 % 1019,3 hPa 0,0 l/m 0,6 km/h (0 Bft) NO 45 -3,8 C -1,6 C 0,0 km/h (0 Bft)
17.12.2018 02:20 -1,6 C -0,1 C 2,6 C -1,5 C 85 % 1019,3 hPa 0,0 l/m 0,6 km/h (0 Bft) O 90 -3,8 C -1,6 C 2,5 km/h (1 Bft)
17.12.2018 02:18 -1,6 C 0,1 C 2,6 C -1,4 C 85 % 1019,3 hPa 0,0 l/m 0,6 km/h (0 Bft) O-NO 67 -3,8 C -1,6 C 2,5 km/h (1 Bft)
17.12.2018 02:16 -1,6 C -0,2 C 2,6 C -1,4 C 85 % 1019,3 hPa 0,0 l/m 0,5 km/h (0 Bft) NO 45 -3,8 C -1,6 C 3,5 km/h (1 Bft)
17.12.2018 02:14 -1,8 C -0,3 C 2,6 C -1,5 C 84 % 1019,3 hPa 0,0 l/m 0,5 km/h (0 Bft) NO 45 -4,1 C -1,8 C 3,5 km/h (1 Bft)
17.12.2018 02:12 -1,8 C -0,6 C 2,6 C -1,4 C 84 % 1019,3 hPa 0,0 l/m 0,0 km/h (0 Bft) NO 45 -4,1 C -1,8 C 0,0 km/h (0 Bft)
17.12.2018 02:10 -1,8 C -0,8 C 2,6 C -1,4 C 84 % 1019,3 hPa 0,0 l/m 0,0 km/h (0 Bft) O-NO 67 -4,1 C -1,8 C 0,0 km/h (0 Bft)
17.12.2018 02:08 -1,8 C -0,9 C 2,6 C -1,4 C 84 % 1019,3 hPa 0,0 l/m 0,0 km/h (0 Bft) NW 315 -4,1 C -1,8 C 0,0 km/h (0 Bft)
17.12.2018 02:06 -1,8 C -0,9 C 2,6 C -1,4 C 84 % 1019,4 hPa 0,0 l/m 0,0 km/h (0 Bft) NW 315 -4,1 C -1,8 C 0,0 km/h (0 Bft)
17.12.2018 02:04 -1,8 C -1,0 C 2,6 C -1,4 C 84 % 1019,4 hPa 0,0 l/m 0,0 km/h (0 Bft) NO 45 -4,1 C -1,8 C 0,0 km/h (0 Bft)
17.12.2018 02:02 -1,6 C -1,2 C 2,6 C -1,4 C 84 % 1019,4 hPa 0,0 l/m 0,0 km/h (0 Bft) O-SO 112 -3,9 C -1,6 C 0,0 km/h (0 Bft)
17.12.2018 02:00 -1,6 C -1,2 C 2,6 C -1,4 C 84 % 1019,4 hPa 0,0 l/m 0,0 km/h (0 Bft) O-SO 112 -3,9 C -1,6 C 0,0 km/h (0 Bft)
17.12.2018 01:58 -1,6 C -1,3 C 2,6 C -1,4 C 84 % 1019,4 hPa 0,0 l/m 0,0 km/h (0 Bft) O-NO 67 -3,9 C -1,6 C 0,0 km/h (0 Bft)
17.12.2018 01:56 -1,6 C -1,2 C 2,6 C -1,4 C 84 % 1019,4 hPa 0,0 l/m 0,0 km/h (0 Bft) S-SO 157 -3,9 C -1,6 C 0,0 km/h (0 Bft)
17.12.2018 01:54 -1,5 C -1,2 C 2,6 C -1,2 C 84 % 1019,4 hPa 0,0 l/m 0,0 km/h (0 Bft) S-SO 157 -3,8 C -1,5 C 0,0 km/h (0 Bft)
17.12.2018 01:52 -1,5 C -0,9 C 2,6 C -1,2 C 84 % 1019,4 hPa 0,0 l/m 0,0 km/h (0 Bft) S-SO 157 -3,8 C -1,5 C 0,0 km/h (0 Bft)
17.12.2018 01:50 -1,4 C -0,5 C 2,6 C -1,2 C 84 % 1019,4 hPa 0,0 l/m 0,0 km/h (0 Bft) S-SO 157 -3,7 C -1,4 C 0,0 km/h (0 Bft)
17.12.2018 01:48 -1,4 C -0,5 C 2,6 C -1,2 C 84 % 1019,4 hPa 0,0 l/m 0,0 km/h (0 Bft) O-SO 112 -3,7 C -1,4 C 0,0 km/h (0 Bft)
17.12.2018 01:46 -1,4 C -0,3 C 2,6 C -1,1 C 84 % 1019,1 hPa 0,0 l/m 0,2 km/h (0 Bft) O-SO 112 -3,7 C -1,4 C 0,0 km/h (0 Bft)
17.12.2018 01:44 -1,3 C -0,3 C 2,6 C -1,1 C 84 % 1019,1 hPa 0,0 l/m 0,3 km/h (0 Bft) O-SO 112 -3,6 C -1,3 C 0,0 km/h (0 Bft)
17.12.2018 01:42 -1,3 C -0,3 C 2,6 C -1,1 C 84 % 1019,1 hPa 0,0 l/m 0,6 km/h (0 Bft) O-SO 112 -3,6 C -1,3 C 0,0 km/h (0 Bft)
17.12.2018 01:40 -1,3 C -0,3 C 2,6 C -1,1 C 84 % 1019,1 hPa 0,0 l/m 0,6 km/h (0 Bft) O-SO 112 -3,6 C -1,3 C 0,0 km/h (0 Bft)
17.12.2018 01:39 -1,3 C -0,2 C 2,6 C -1,1 C 84 % 1019,1 hPa 0,0 l/m 0,6 km/h (0 Bft) O-SO 112 -3,6 C -1,3 C 0,0 km/h (0 Bft)
17.12.2018 01:36 -1,3 C -0,3 C 2,6 C -1,1 C 84 % 1019,1 hPa 0,0 l/m 0,6 km/h (0 Bft) NO 45 -3,6 C -1,3 C 2,5 km/h (1 Bft)
17.12.2018 01:34 -1,1 C -0,3 C 2,6 C -1,1 C 84 % 1019,1 hPa 0,0 l/m 0,6 km/h (0 Bft) O 90 -3,4 C -1,1 C 3,1 km/h (1 Bft)
17.12.2018 01:32 -1,1 C -0,3 C 2,6 C -1,0 C 84 % 1019,1 hPa 0,0 l/m 0,8 km/h (0 Bft) NO 45 -3,4 C -1,1 C 3,1 km/h (1 Bft)
17.12.2018 01:30 -1,1 C -0,3 C 2,5 C -1,0 C 84 % 1019,1 hPa 0,0 l/m 0,8 km/h (0 Bft) N-NO 22 -3,4 C -1,1 C 0,0 km/h (0 Bft)
17.12.2018 01:28 -1,1 C -0,3 C 2,5 C -1,0 C 84 % 1019,1 hPa 0,0 l/m 1,0 km/h (0 Bft) O 90 -3,4 C -1,1 C 1,9 km/h (1 Bft)
17.12.2018 01:26 -1,1 C -0,2 C 2,6 C -1,0 C 84 % 1018,9 hPa 0,0 l/m 0,8 km/h (0 Bft) O 90 -3,4 C -1,1 C 2,3 km/h (1 Bft)
17.12.2018 01:24 -1,1 C -0,2 C 2,6 C -1,0 C 84 % 1018,9 hPa 0,0 l/m 0,6 km/h (0 Bft) O-SO 112 -3,4 C -1,1 C 2,3 km/h (1 Bft)
17.12.2018 01:22 -1,1 C -0,2 C 2,6 C -1,0 C 84 % 1018,9 hPa 0,0 l/m 0,5 km/h (0 Bft) O 90 -3,4 C -1,1 C 2,1 km/h (1 Bft)
17.12.2018 01:20 -1,1 C -0,2 C 2,5 C -1,0 C 84 % 1018,9 hPa 0,0 l/m 0,5 km/h (0 Bft) O-SO 112 -3,4 C -1,1 C 2,1 km/h (1 Bft)
17.12.2018 01:18 -1,1 C -0,2 C 2,5 C -1,0 C 84 % 1018,9 hPa 0,0 l/m 0,6 km/h (0 Bft) O 90 -3,4 C -1,1 C 2,1 km/h (1 Bft)
17.12.2018 01:16 -1,1 C -0,2 C 2,5 C -0,9 C 84 % 1018,9 hPa 0,0 l/m 0,8 km/h (0 Bft) O-SO 112 -3,4 C -1,1 C 2,1 km/h (1 Bft)
17.12.2018 01:14 -1,0 C -0,2 C 2,5 C -0,9 C 84 % 1018,9 hPa 0,0 l/m 0,6 km/h (0 Bft) O-SO 112 -3,4 C -1,0 C 0,0 km/h (0 Bft)
17.12.2018 01:12 -1,0 C -0,2 C 2,5 C -0,9 C 85 % 1018,9 hPa 0,0 l/m 0,6 km/h (0 Bft) S-SO 157 -3,2 C -1,0 C 2,9 km/h (1 Bft)
17.12.2018 01:10 -1,0 C -0,2 C 2,5 C -0,9 C 85 % 1018,9 hPa 0,0 l/m 0,6 km/h (0 Bft) S-SO 157 -3,2 C -1,0 C 3,7 km/h (1 Bft)
17.12.2018 01:08 -1,0 C -0,2 C 2,5 C -0,9 C 85 % 1018,9 hPa 0,0 l/m 0,5 km/h (0 Bft) S 180 -3,2 C -1,0 C 3,7 km/h (1 Bft)
17.12.2018 01:06 -1,0 C -0,2 C 2,5 C -0,9 C 85 % 1019,1 hPa 0,0 l/m 0,3 km/h (0 Bft) O 90 -3,2 C -1,0 C 2,5 km/h (1 Bft)
17.12.2018 01:04 -0,9 C -0,3 C 2,5 C -0,9 C 85 % 1019,1 hPa 0,0 l/m 0,2 km/h (0 Bft) S-SO 157 -3,1 C -0,9 C 0,0 km/h (0 Bft)
17.12.2018 01:02 -0,9 C -0,3 C 2,5 C -0,9 C 85 % 1019,1 hPa 0,0 l/m 0,2 km/h (0 Bft) S 180 -3,1 C -0,9 C 0,0 km/h (0 Bft)
17.12.2018 01:00 -0,9 C -0,2 C 2,5 C -0,9 C 85 % 1019,1 hPa 0,0 l/m 0,2 km/h (0 Bft) W 270 -3,1 C -0,9 C 0,0 km/h (0 Bft)
17.12.2018 00:59 -0,7 C 0,2 C 2,5 C -0,9 C 85 % 1019,1 hPa 0,0 l/m 0,2 km/h (0 Bft) W-SW 247 -2,9 C -0,7 C 0,0 km/h (0 Bft)
17.12.2018 00:56 -0,7 C 0,2 C 2,5 C -0,9 C 85 % 1019,1 hPa 0,0 l/m 0,5 km/h (0 Bft) S-SO 157 -2,9 C -0,7 C 0,0 km/h (0 Bft)
17.12.2018 00:54 -0,7 C 0,2 C 2,5 C -0,9 C 85 % 1019,1 hPa 0,0 l/m 1,1 km/h (1 Bft) O-SO 112 -2,9 C -0,7 C 0,0 km/h (0 Bft)
17.12.2018 00:52 -0,7 C 0,3 C 2,5 C -0,9 C 85 % 1019,1 hPa 0,0 l/m 1,8 km/h (1 Bft) SO 135 -2,9 C -0,7 C 0,0 km/h (0 Bft)
17.12.2018 00:50 -0,7 C 0,4 C 2,5 C -0,9 C 85 % 1019,1 hPa 0,0 l/m 2,1 km/h (1 Bft) N 360 -2,9 C -0,7 C 0,0 km/h (0 Bft)
17.12.2018 00:49 -0,7 C 0,4 C 2,5 C -0,9 C 85 % 1019,1 hPa 0,0 l/m 2,6 km/h (1 Bft) N 360 -2,9 C -0,7 C 3,7 km/h (1 Bft)
17.12.2018 00:46 -0,7 C 0,4 C 2,5 C -0,9 C 85 % 1019,1 hPa 0,0 l/m 2,4 km/h (1 Bft) N-NW 337 -2,9 C -0,7 C 8,7 km/h (2 Bft)
17.12.2018 00:44 -0,7 C 0,4 C 2,5 C -0,9 C 85 % 1019,1 hPa 0,0 l/m 2,4 km/h (1 Bft) NW 315 -2,9 C -0,7 C 7,5 km/h (2 Bft)
17.12.2018 00:42 -0,7 C 0,3 C 2,5 C -0,9 C 85 % 1019,1 hPa 0,0 l/m 1,8 km/h (1 Bft) W-NW 292 -2,9 C -0,7 C 6,6 km/h (2 Bft)
17.12.2018 00:40 -0,7 C 0,4 C 2,5 C -0,9 C 85 % 1019,1 hPa 0,0 l/m 1,6 km/h (1 Bft) N-NO 22 -2,9 C -0,7 C 6,0 km/h (2 Bft)
17.12.2018 00:38 -0,9 C 0,4 C 2,5 C -0,9 C 85 % 1019,1 hPa 0,0 l/m 1,3 km/h (1 Bft) NO 45 -3,1 C -0,9 C 2,9 km/h (1 Bft)
17.12.2018 00:36 -0,9 C 0,4 C 2,5 C -1,0 C 85 % 1019,1 hPa 0,0 l/m 1,1 km/h (1 Bft) W 270 -3,1 C -0,9 C 6,4 km/h (2 Bft)
17.12.2018 00:34 -0,9 C 0,4 C 2,5 C -1,0 C 85 % 1019,1 hPa 0,0 l/m 1,0 km/h (0 Bft) NW 315 -3,1 C -0,9 C 6,4 km/h (2 Bft)
17.12.2018 00:32 -0,9 C 0,3 C 2,5 C -1,0 C 85 % 1019,1 hPa 0,0 l/m 0,8 km/h (0 Bft) W-NW 292 -3,1 C -0,9 C 3,9 km/h (1 Bft)
17.12.2018 00:30 -0,9 C 0,3 C 2,5 C -1,0 C 84 % 1019,1 hPa 0,0 l/m 0,6 km/h (0 Bft) W-NW 292 -3,3 C -0,9 C 3,7 km/h (1 Bft)
17.12.2018 00:28 -0,9 C 0,3 C 2,5 C -1,0 C 84 % 1019,1 hPa 0,0 l/m 0,3 km/h (0 Bft) W-NW 292 -3,3 C -0,9 C 2,7 km/h (1 Bft)
17.12.2018 00:26 -0,9 C 0,3 C 2,5 C -1,0 C 84 % 1019,2 hPa 0,0 l/m 0,5 km/h (0 Bft) NW 315 -3,3 C -0,9 C 2,7 km/h (1 Bft)
17.12.2018 00:24 -0,9 C 0,4 C 2,5 C -1,0 C 84 % 1019,2 hPa 0,0 l/m 0,3 km/h (0 Bft) NW 315 -3,3 C -0,9 C 0,0 km/h (0 Bft)
17.12.2018 00:22 -0,9 C 0,4 C 2,5 C -1,0 C 84 % 1019,2 hPa 0,0 l/m 0,3 km/h (0 Bft) W-NW 292 -3,3 C -0,9 C 0,0 km/h (0 Bft)
17.12.2018 00:20 -0,9 C 0,4 C 2,5 C -1,0 C 84 % 1019,2 hPa 0,0 l/m 0,3 km/h (0 Bft) NW 315 -3,3 C -0,9 C 0,0 km/h (0 Bft)
17.12.2018 00:19 -0,9 C 0,4 C 2,5 C -1,0 C 84 % 1019,2 hPa 0,0 l/m 0,3 km/h (0 Bft) N-NW 337 -3,3 C -0,9 C 0,0 km/h (0 Bft)
17.12.2018 00:16 -0,9 C 0,4 C 2,5 C -1,0 C 84 % 1019,2 hPa 0,0 l/m 0,3 km/h (0 Bft) N-NW 337 -3,3 C -0,9 C 4,1 km/h (1 Bft)
17.12.2018 00:14 -0,9 C 0,4 C 2,5 C -1,0 C 84 % 1019,2 hPa 0,0 l/m 0,3 km/h (0 Bft) W-NW 292 -3,3 C -0,9 C 4,1 km/h (1 Bft)
17.12.2018 00:12 -0,9 C 0,4 C 2,5 C -1,1 C 84 % 1019,2 hPa 0,0 l/m 0,2 km/h (0 Bft) NW 315 -3,3 C -0,9 C 0,0 km/h (0 Bft)
17.12.2018 00:10 -0,9 C 0,3 C 2,5 C -1,1 C 84 % 1019,2 hPa 0,0 l/m 0,8 km/h (0 Bft) N-NO 22 -3,3 C -0,9 C 0,0 km/h (0 Bft)
17.12.2018 00:08 -0,9 C 0,3 C 2,5 C -1,1 C 84 % 1019,2 hPa 0,0 l/m 0,8 km/h (0 Bft) N-NO 22 -3,3 C -0,9 C 0,0 km/h (0 Bft)
17.12.2018 00:06 -0,9 C 0,3 C 2,5 C -1,1 C 84 % 1019,2 hPa 0,0 l/m 0,8 km/h (0 Bft) N-NO 22 -3,3 C -0,9 C 0,0 km/h (0 Bft)
17.12.2018 00:04 -0,9 C 0,3 C 2,5 C -1,1 C 84 % 1019,2 hPa 0,0 l/m 0,8 km/h (0 Bft) N-NO 22 -3,3 C -0,9 C 0,0 km/h (0 Bft)
17.12.2018 00:02 -0,9 C 0,3 C 2,5 C -1,1 C 84 % 1019,2 hPa 0,0 l/m 0,8 km/h (0 Bft) N-NO 22 -3,3 C -0,9 C 0,0 km/h (0 Bft)
17.12.2018 00:00 -0,9 C 0,3 C 2,5 C -1,1 C 84 % 1019,2 hPa 0,0 l/m 1,0 km/h (0 Bft) N-NW 337 -3,3 C -0,9 C 2,3 km/h (1 Bft)
_ Min-Zeit 06:28 03:32 00:00 04:48 10:54 01:08 - 01:48 - - 06:28 06:28 00:02
Minimum _ -3,4 C -3,2 C 2,5 C -2,9 C 81 % 1018,9 hPa - 0,0 km/h (0 Bft) - - -5,4 C -3,4 C 0,0 km/h (0 Bft)
_ Max-Zeit 11:58 11:20 03:34 11:54 06:40 11:48 00:00 11:12 - - 11:58 11:58 00:46
Maximum _ 1,7 C 0,6 C 2,8 C 1,3 C 87 % 1023,6 hPa 0,0 l/m 3,2 km/h
SO (1 Bft)
- - -1,0 C 1,7 C 8,7 km/h
N-NW (2 Bft)
Durchschnitt _ -1,5 C -0,9 C 2,7 C -1,5 C 85 % 1020,8 hPa #0,0 l/m 0,5 km/h (0 Bft) O-SO - -3,7 C -1,5 C 1,2 km/h (1 Bft)